Погода в Ешлик

Узбекистан     40°06′32″N   65°24′11″E
темп.,
°C
ветер,
м/с
пор.,
м/с
влажн.,
%
обл.,
%
осадки,
мм/ч
давл.,
гПа
погр.,
м
6 августа, пт
пт623:00+30ссв45200 0.0 100458
02:00+27всв23210 0.0 100418
05:00+25ссз11220 0.0 100415
08:00+30св25150 0.0 1005424
11:00+36св65120 0.0 10042111
14:00+38ссв76100 0.0 10033119
17:00+38св9980 0.0 10023575
20:00+33св56140 0.0 100363
7 августа, сб
сб723:00+29св22180 0.0 100312
02:00+28ссз33190 0.0 100415
05:00+26ссв22220 0.0 100412
08:00+32с35170 0.0 1005308
11:00+37с76130 0.0 10053189
14:00+39с86110 0.0 10043621
17:00+39с76100 0.0 10033723
20:00+34с45130 0.0 100446
8 августа, вс
вс823:00+31ссв33150 0.0 100414
02:00+29в23170 0.0 100512
05:00+26св11210 0.0 100612
08:00+32св12150 0.0 1007170
11:00+38ссв24110 0.0 10063305
14:00+41с5480 0.0 10044033
17:00+40с9680 0.0 10043705
20:00+35с611130 0.0 1005153
9 августа, пн
пн923:00+32ссв915160 0.0 1006411
02:00+27ссз11180 0.0 100617
05:00+25всв33210 0.0 100725
08:00+29всв34160 0.0 1009274
11:00+35ссв33120 0.0 10081324
14:00+38ссв7580 0.0 10072616
17:00+37ссв1110100 0.0 10082239
20:00+31ссв812120 0.0 1009265
10 августа, вт
вт1023:00+28св57150 0.0 1010106
02:00+25ссв11180 0.0 100918
05:00+22ссв11220 0.0 100817
08:00+28с34160 0.0 1008246
11:00+33св34100 0.0 10071320
14:00+37с4470 0.0 10062015
17:00+37ссв9970 0.0 10052188
20:00+31ссв712120 0.0 1006195